Weather in Southeast Greensboro

United States     35°56′31″N   79°41′07″W
temp.,
°C
wind,
m/s
gust,
m/s
humid.,
%
clouds,
%
prec.,
mm/h
press.,
hPa
HPBL,
m
18 september, sat
sat1823:00+21ne238882 0.0 102063
02:00+19nne22943 0.0 101924
05:00+19n11962 0.0 102014
08:00+20nne12915 0.0 102068
11:00+28ne226070 0.0 10201005
14:00+31ene124490 0.4 10182130
17:00+27ese246380 0.1 1017150
20:00+24ese126669 0.1 101816
19 september, sun
sun1923:00+21ene118190 0.3 101911
02:00+20nne1187100 0.4 101911
05:00+19nne119198 0.0 101911
08:00+20nne228995 0.0 102166
11:00+27ene2359100 0.0 1021706
14:00+31se3440100 0.0 10192389
17:00+30sse344395 0.0 10171388
20:00+24sse115868 0.0 101911
20 september, mon
mon2023:00+23ese266395 0.0 1020121
02:00+21sse2280100 0.0 102141
05:00+19sse249338 0.0 102185
08:00+19ene2491100 0.0 1023132
11:00+25e456897 0.1 10231002
14:00+29ese5645100 0.3 10212134
17:00+28e4647100 0.0 10211323
20:00+24e3953100 0.0 1022450
21 september, tue
tue2123:00+22e31052100 0.0 1023418
02:00+21e396490 0.0 1023397
05:00+17ne2394100 0.7 1023102
08:00+18ne3799100 1.4 1023296
11:00+19ene4798100 3.6 1023363
14:00+19ne2598100 7.0 1023245
17:00+19ne3699100 5.6 1021279
20:00+19ne3799100 11.6 1020295
22 september, wed
wed2223:00+19ene41199100 2.8 1019478
02:00+19e4897100 4.0 1017517
05:00+18ene1498100 0.3 1016196
08:00+19e1199100 0.3 101591
11:00+21wsw2395100 0.1 1015329
14:00+26w2367100 0.3 10131083
17:00+23nw588711 2.3 1012760
20:00+18nnw612790 2.4 1015665